McMinnville, OR

2:07 AM PDT on July 23, 2017 (GMT -0700)
McMinnville Municipal

Weather History for KMMV - November, 2012

Change the Weather History Date:

Wednesday, November 7, 2012

  Actual Average Record
Temperature  
Mean Temperature 47 °F 47 °F  
Max Temperature 57 °F 55 °F 70 °F (1923)
Min Temperature 37 °F 39 °F 24 °F (1957)
Degree Days  
Heating Degree Days 18 18  
Month to date heating degree days 67 124  
Since 1 July heating degree days 495 747  
Cooling Degree Days 0 0  
Month to date cooling degree days 0 0  
Year to date cooling degree days 300 215  
Moisture  
Dew Point 42 °F    
Average Humidity 72    
Maximum Humidity 93    
Minimum Humidity 51    
Precipitation  
Precipitation 0.01 in 0.20 in 1.41 in (1896)
Month to date precipitation 0.72 1.37  
Year to date precipitation 35.20 28.23  
Snow  
Snow 0.00 in - - ()
Month to date snowfall 0.0  
Snow Depth 0.00 in    
Sea Level Pressure  
Sea Level Pressure 30.11 in    
Wind  
Wind Speed 5 mph (WSW)    
Max Wind Speed 13 mph    
Max Gust Speed 18 mph    
Visibility 9 miles    
Events      
T = Trace of Precipitation, MM = Missing Value Source: NWS Daily Summary

Daily Weather History Graph

Daily Weather History Graph

Search for Another Location

Airport or City:

Trip Planner

Search our weather history database for the weather conditions in past years. The results will help you decide how hot, cold, wet, or windy it might be!

Date:

Astronomy

Nov. 07, 2012 Rise Set
Actual Time 7:00 AM PST 4:51 PM PST
Civil Twilight 6:29 AM PST 5:22 PM PST
Nautical Twilight 5:54 AM PST 5:57 PM PST
Astronomical Twilight 5:19 AM PST 6:32 PM PST
Moon No Moon Rise 1:20 PM PST (11/7)
Length of Visible Light 10h 53m
Length of Day
9h 50m
Last Quarter, 42% of the Moon is Illuminated
Nov 7
Last Quarter
Nov 13
New
Nov 20
First Quarter
Nov 28
Full
Dec 6
Last Quarter

Hourly Weather History & Observations

Time (PST) Temp. Windchill Dew Point Humidity Pressure Visibility Wind Dir Wind Speed Gust Speed Precip Events Conditions
12:53 AM 50.0 °F - 46.0 °F 86% 30.14 in 5.0 mi WSW 8.1 mph - N/A   Clear
1:53 AM 48.0 °F - 45.0 °F 89% 30.15 in 4.0 mi West 5.8 mph - N/A   Partly Cloudy
2:53 AM 48.9 °F - 46.0 °F 90% 30.17 in 9.0 mi SW 3.5 mph - N/A   Overcast
3:53 AM 46.0 °F 43.9 °F 43.0 °F 89% 30.17 in 8.0 mi SW 4.6 mph - N/A   Partly Cloudy
4:53 AM 46.9 °F - 45.0 °F 93% 30.19 in 8.0 mi West 4.6 mph - 0.01 in   Mostly Cloudy
5:53 AM 45.0 °F 43.5 °F 42.1 °F 90% 30.19 in 10.0 mi South 3.5 mph - N/A   Clear
6:53 AM 46.0 °F - 44.1 °F 93% 30.19 in 10.0 mi Calm Calm - N/A   Overcast
7:53 AM 46.0 °F 43.9 °F 43.0 °F 89% 30.19 in 10.0 mi WSW 4.6 mph - N/A   Partly Cloudy
8:53 AM 48.0 °F - 45.0 °F 89% 30.19 in 10.0 mi WSW 6.9 mph - N/A   Mostly Cloudy
9:53 AM 52.0 °F - 45.0 °F 77% 30.19 in 10.0 mi Variable 3.5 mph - N/A   Clear
10:53 AM 54.0 °F - 43.0 °F 66% 30.18 in 10.0 mi SW 6.9 mph - N/A   Scattered Clouds
11:53 AM 55.0 °F - 39.9 °F 57% 30.17 in 10.0 mi WSW 4.6 mph - N/A   Overcast
12:53 PM 57.0 °F - 39.9 °F 53% 30.15 in 10.0 mi WSW 8.1 mph - 0.00 in   Overcast
1:53 PM 54.0 °F - 42.1 °F 64% 30.13 in 9.0 mi SW 10.4 mph - 0.00 in   Mostly Cloudy
2:53 PM 53.1 °F - 42.1 °F 66% 30.12 in 8.0 mi WSW 9.2 mph - 0.00 in   Overcast
3:53 PM 54.0 °F - 42.1 °F 64% 30.10 in 8.0 mi SSW 3.5 mph - N/A   Overcast
4:53 PM 48.0 °F - 41.0 °F 77% 30.08 in 10.0 mi SSW 6.9 mph - N/A   Clear
5:53 PM 46.9 °F - 39.9 °F 77% 30.06 in 10.0 mi SW 6.9 mph - N/A   Clear
6:53 PM 45.0 °F - 39.0 °F 80% 30.05 in 9.0 mi Calm Calm - N/A   Mostly Cloudy
7:53 PM 45.0 °F 43.5 °F 39.9 °F 82% 30.03 in 10.0 mi WNW 3.5 mph - N/A   Overcast
8:53 PM 43.0 °F - 37.9 °F 82% 30.01 in 10.0 mi Calm Calm - N/A   Mostly Cloudy
9:53 PM 41.0 °F 38.0 °F 37.9 °F 89% 29.99 in 10.0 mi NW 4.6 mph - N/A   Mostly Cloudy
10:53 PM 39.0 °F - 36.0 °F 89% 29.97 in 10.0 mi Calm Calm - N/A   Clear
11:53 PM 37.0 °F - 34.0 °F 89% 29.94 in 9.0 mi Calm Calm - N/A   Clear